User: anonymous   Login
Location: Unspecified
(0.0000°N, 0.0000°E)
Time: 12:29:49
(UTC+01:00)
Language:

ARIANE 44L R/B - Orbit

View from above orbital plane
View from above orbital plane
View from above satellite
View from above satellite

Ground track
Ground track

The orbit data is extracted from the following two-line orbital elements,

1 26901U 01039B   16036.58357557  .00001667  00000-0  59359-3 0  9996
2 26901   7.4998  23.3947 6905416 205.8019  91.1265  2.74795935129794
Epoch (UTC): 05 February 2016 14:00:20
Eccentricity: 0.6905416
inclination: 7.4998°
perigee height: 285 km
apogee height: 30020 km
right ascension of ascending node: 23.3947°
argument of perigee: 205.8019°
revolutions per day: 2.74795935
mean anomaly at epoch: 91.1265°
orbit number at epoch: 12979

The dashed part of the orbit path shows where the satellite is in the earth's shadow,  

DLR